Location: Campo Verde
(10.0505°N, 66.8815°W)
Time: 07:10:26
(UTC+00:00)

Daily predictions for brighter satellites

Satellite Brightness Start Highest point End
(mag) Time Altitude Azimuth Time Altitude Azimuth Time Altitude Azimuth
ARIANE 44P R/B 4.4 22:47:15 10° SW 22:50:54 36° SSE 23:05:24 10° E
Cosmos 292 Rocket 3.8 23:08:16 10° SSW 23:13:02 90° WNW 23:17:47 10° NNE
PAYLOAD B 4.3 23:08:56 10° SSE 23:14:26 87° ENE 23:19:56 10° NNW
YAOGAN 1 3.4 23:10:46 10° SE 23:14:36 32° ENE 23:18:27 10° NNE
GOES 2 Rocket 3.4 23:12:59 10° SW 23:17:05 46° SSE 23:21:50 10° ENE
Delta 2 Rocket 3.5 23:14:19 10° WSW 23:17:46 56° NW 23:21:02 10° NE
Cosmos 2084 3.9 23:18:28 10° S 23:22:08 33° ESE 23:25:39 10° NE
Genesis I 3.3 23:19:39 10° NNW 23:23:31 77° WSW 23:27:17 10° SSE
ARIANE 5 R/B 4.0 23:19:10 10° WSW 23:29:21 21° SSW 23:33:08 10° SSE
Hubble Space Telescope 3.2 23:29:06 10° N 23:30:52 12° NNE 23:32:38 10° NE
Cosmos 1782 Rocket 3.5 23:27:39 10° N 23:32:06 82° E 23:36:33 10° S
CZ-2C R/B 1.3 23:34:15 10° NW 23:38:22 67° NE 23:41:17 18° ESE
H-2A R/B 3.6 23:35:45 10° ENE 23:38:45 18° E 23:40:05 16° ESE
Feng Yun 1-1 Rocket 4.4 23:34:10 10° SSE 23:39:20 49° ENE 23:44:33 10° N
Cosmos 2266 Rocket 4.0 23:35:50 10° N 23:41:54 90° WSW 23:48:05 10° S
Cosmos 2369 Rocket 4.0 23:41:25 10° NE 23:43:54 13° ENE 23:45:15 12° E
SJ-6B 4.5 23:46:44 15° E 23:46:59 15° ENE 23:49:11 10° NE
OBJECT-B 1.6 23:47:23 23° E 23:47:43 24° ENE 23:50:05 10° NNE
USA 267 3.7 23:41:56 10° ENE 23:47:49 36° SE 23:53:43 10° S
Sich 1 Rocket 4.4 23:44:21 10° NNE 23:48:29 33° E 23:50:58 20° SE
Delta 202 3.9 23:45:00 10° W 23:50:14 64° NNW 23:55:54 10° ENE
Cosmos 1378 Rocket 3.5 23:46:10 10° S 23:50:36 72° E 23:54:59 10° N
H-2A R/B 4.2 23:55:55 14° ENE 23:55:55 14° ENE 23:57:31 10° NE
